Weather History for Central Park, NY

Change the Weather History Date:

Friday, September 27, 2013

  Actual Average Record
Temperature  
Mean Temperature 63 °F 64 °F  
Max Temperature 69 °F 71 °F 90 °F (1933)
Min Temperature 57 °F 57 °F 41 °F (1957)
Degree Days  
Heating Degree Days 2 3  
Month to date heating degree days 36 30  
Since 1 July heating degree days 36 32  
Cooling Degree Days 0 2  
Month to date cooling degree days 131 127  
Year to date cooling degree days 1224 1081  
Growing Degree Days 13 (Base 50)    
Moisture  
Dew Point 50 °F    
Average Humidity 66    
Maximum Humidity 80    
Minimum Humidity 52    
Precipitation  
Precipitation 0.00 in 0.15 in 3.13 in (1985)
Month to date precipitation 2.95 3.80  
Year to date precipitation 37.96 37.04  
Snow  
Snow 0.00 in 0.00 in 0.00 in (2002)
Month to date snowfall 0.0 0.0  
Since 1 July snowfall 0.0 0.0  
Snow Depth 0.00 in    
Sea Level Pressure  
Sea Level Pressure 30.20 in    
Wind  
Wind Speed 5 mph (NE)    
Max Wind Speed 10 mph    
Max Gust Speed 14 mph    
Visibility 10 miles    
Events      
T = Trace of Precipitation, MM = Missing Value Source: NWS Daily Summary

Daily Weather History Graph

Daily Weather History Graph

Search for Another Location

Airport:

Trip Planner

Search our weather history database for the weather conditions in past years. The results will help you decide how hot, cold, wet, or windy it might be!

Date:

Astronomy

Sep. 27, 2013 Rise Set
Actual Time 6:48 AM EDT 6:44 PM EDT
Civil Twilight 6:21 AM EDT 7:11 PM EDT
Nautical Twilight 5:49 AM EDT 7:43 PM EDT
Astronomical Twilight 5:17 AM EDT 8:15 PM EDT
Moon No Moon Rise 2:22 PM EDT (9/27)
Length of Visible Light 12h 50m
Length of Day
11h 55m
Last Quarter, 45% of the Moon is Illuminated
Sep 27
Last Quarter
Oct 4
New
Oct 11
First Quarter
Oct 18
Full
Oct 26
Last Quarter

Hourly Weather History & Observations

Time (EDT) Temp. Dew Point Humidity Pressure Visibility Wind Dir Wind Speed Gust Speed Precip Events Conditions
12:51 AM 59.0 °F 52.0 °F 78% 30.11 in 10.0 mi Calm Calm - N/A   Partly Cloudy
1:51 AM 59.0 °F 53.1 °F 81% 30.12 in 10.0 mi WNW 3.5 mph - N/A   Partly Cloudy
2:51 AM 57.9 °F 51.1 °F 78% 30.13 in 10.0 mi Calm Calm - N/A   Scattered Clouds
3:51 AM 57.0 °F 52.0 °F 83% 30.13 in 10.0 mi Calm Calm - N/A   Clear
4:51 AM 57.0 °F 51.1 °F 81% 30.15 in 10.0 mi Variable 4.6 mph - N/A   Scattered Clouds
4:59 AM 57.9 °F 51.1 °F 78% 30.17 in 10.0 mi Variable 3.5 mph - N/A   Mostly Cloudy
5:29 AM 59.0 °F 48.0 °F 67% 30.18 in 10.0 mi Variable 4.6 mph - N/A   Overcast
5:51 AM 59.0 °F 48.0 °F 67% 30.16 in 10.0 mi NE 4.6 mph - N/A   Overcast
6:51 AM 57.9 °F 48.0 °F 70% 30.18 in 10.0 mi ENE 5.8 mph - N/A   Overcast
7:51 AM 57.9 °F 48.0 °F 70% 30.20 in 10.0 mi Variable 5.8 mph - N/A   Overcast
8:51 AM 59.0 °F 48.0 °F 67% 30.22 in 10.0 mi ENE 8.1 mph - N/A   Overcast
9:51 AM 61.0 °F 48.0 °F 62% 30.22 in 10.0 mi Variable 3.5 mph - N/A   Clear
10:51 AM 63.0 °F 48.9 °F 60% 30.23 in 10.0 mi East 6.9 mph - N/A   Mostly Cloudy
11:51 AM 66.9 °F 52.0 °F 59% 30.23 in 10.0 mi NE 5.8 mph - N/A   Clear
12:51 PM 69.1 °F 51.1 °F 53% 30.22 in 10.0 mi ENE 9.2 mph - N/A   Scattered Clouds
1:51 PM 64.9 °F 50.0 °F 58% 30.21 in 10.0 mi Variable 5.8 mph - N/A   Overcast
2:51 PM 66.0 °F 50.0 °F 56% 30.21 in 10.0 mi Variable 4.6 mph - N/A   Overcast
3:51 PM 66.0 °F 48.9 °F 54% 30.20 in 10.0 mi Variable 3.5 mph - N/A   Overcast
4:51 PM 64.9 °F 51.1 °F 61% 30.21 in 10.0 mi ENE 3.5 mph - N/A   Overcast
5:51 PM 64.9 °F 50.0 °F 58% 30.22 in 10.0 mi Variable 3.5 mph - N/A   Overcast
6:51 PM 64.0 °F 51.1 °F 63% 30.22 in 10.0 mi Variable 4.6 mph - N/A   Overcast
7:51 PM 64.0 °F 50.0 °F 60% 30.23 in 10.0 mi Variable 4.6 mph - N/A   Overcast
8:51 PM 64.0 °F 48.9 °F 58% 30.24 in 10.0 mi North - - N/A   Overcast
9:51 PM 63.0 °F 48.0 °F 58% 30.25 in 10.0 mi ENE 8.1 mph - N/A   Overcast
10:51 PM 63.0 °F 50.0 °F 63% 30.27 in 10.0 mi NE 5.8 mph - N/A   Overcast
11:51 PM 62.1 °F 48.9 °F 62% 30.27 in 10.0 mi NE 3.5 mph - N/A   Overcast